DW8231 Weather Reports


Display with metric or nautical units.
time (UTC)temp
F
wind
direction
speed
MPH
gust
MPH
rain 1hr
in
rain 24hr
in
rain mn
in
humidity
%
barometer
mb
20200406020117 49 151 2.0 4.0 0.00 0.00 0.00 48 1017.1
20200406015533 50 153 2.0 4.0 0.00 0.00 0.00 48 1017.3
20200406015034 50 155 2.0 3.0 0.00 0.00 0.00 48 1017.3
20200406014543 50 156 1.0 3.0 0.00 0.00 0.00 48 1017.3
20200406014035 50 156 1.0 3.0 0.00 0.00 0.00 47 1017.3
20200406013538 50 157 1.0 2.0 0.00 0.00 0.00 47 1017.3
20200406013040 50 157 0.0 2.0 0.00 0.00 0.00 47 1017.3
20200406012537 50 157 0.0 1.0 0.00 0.00 0.00 47 1017.4
20200406012034 50 157 0.0 2.0 0.00 0.00 0.00 47 1017.4
20200406011034 51 157 2.0 4.0 0.00 0.00 0.00 47 1017.4
20200406010535 51 158 2.0 4.0 0.00 0.00 0.00 47 1017.4
20200406010122 51 180 0.0 2.0 0.00 0.00 0.00 46 1017.4
20200406005531 51 180 1.0 3.0 0.00 0.00 0.00 46 1017.4
20200406005035 52 180 0.0 3.0 0.00 0.00 0.00 46 1017.4
20200406004611 52 192 0.0 4.0 0.00 0.00 0.00 45 1017.6
20200406004029 53 192 0.0 5.0 0.00 0.00 0.00 44 1017.6
20200406003538 53 209 1.0 5.0 0.00 0.00 0.00 43 1017.7
20200406003033 53 234 1.0 6.0 0.00 0.00 0.00 43 1017.8
20200406002528 53 232 1.0 7.0 0.00 0.00 0.00 43 1017.8
20200406002028 54 204 3.0 7.0 0.00 0.00 0.00 42 1017.7
20200406001036 54 192 2.0 7.0 0.00 0.00 0.00 41 1018.1
20200406000532 54 182 2.0 6.0 0.00 0.00 0.00 42 1018.2
20200406000056 54 196 0.0 6.0 0.00 0.00 0.00 42 1018.3
20200405235525 54 202 2.0 6.0 0.00 0.00 0.00 41 1018.4
20200405235024 54 204 2.0 6.0 0.00 0.00 0.00 41 1018.5
20200405234548 55 228 2.0 7.0 0.00 0.00 0.00 42 1018.5
20200405234026 55 204 0.0 7.0 0.00 0.00 0.00 41 1018.5
20200405233523 55 211 2.0 7.0 0.00 0.00 0.00 39 1018.6
20200405233044 56 224 0.0 6.0 0.00 0.00 0.00 41 1018.6
20200405232523 56 223 3.0 6.0 0.00 0.00 0.00 39 1018.7
20200405232030 56 219 1.0 9.0 0.00 0.00 0.00 40 1018.7
20200405231022 57 238 1.0 6.0 0.00 0.00 0.00 40 1018.9
20200405230536 57 224 2.0 7.0 0.00 0.00 0.00 39 1018.8
20200405230038 56 250 4.0 7.0 0.00 0.00 0.00 39 1018.9
20200405225521 57 224 1.0 9.0 0.00 0.00 0.00 39 1019.0
20200405225023 57 240 4.0 7.0 0.00 0.00 0.00 40 1019.0
20200405224547 57 252 3.0 7.0 0.00 0.00 0.00 41 1019.1
20200405224026 57 259 2.0 8.0 0.00 0.00 0.00 41 1019.1
20200405223519 57 266 4.0 10.0 0.00 0.00 0.00 41 1019.1
20200405223030 57 235 4.0 10.0 0.00 0.00 0.00 40 1019.1
20200405222523 56 248 2.0 7.0 0.00 0.00 0.00 40 1019.2
20200405222020 56 284 2.0 10.0 0.00 0.00 0.00 41 1019.1
20200405221018 56 240 4.0 11.0 0.00 0.00 0.00 39 1019.2
20200405220518 56 205 4.0 11.0 0.00 0.00 0.00 39 1019.2
20200405220103 56 238 3.0 8.0 0.00 0.00 0.00 41 1019.3
20200405215516 56 255 4.0 10.0 0.00 0.01 0.00 41 1019.2
20200405215016 56 199 2.0 10.0 0.00 0.01 0.00 38 1019.2
20200405214638 56 182 3.0 12.0 0.00 0.01 0.00 38 1019.3
20200405214021 57 246 5.0 12.0 0.00 0.01 0.00 38 1019.3
20200405213533 57 242 4.0 11.0 0.00 0.01 0.00 40 1019.3
20200405213022 56 254 3.0 9.0 0.00 0.01 0.00 41 1019.4
20200405212514 56 202 4.0 10.0 0.00 0.01 0.00 40 1019.5
20200405212019 56 241 2.0 11.0 0.00 0.01 0.00 42 1019.5
20200405211014 56 215 3.0 12.0 0.00 0.01 0.00 40 1019.5
20200405210517 56 216 3.0 12.0 0.00 0.01 0.00 40 1019.5
20200405210019 56 207 6.0 13.0 0.00 0.01 0.00 39 1019.7
20200405205517 56 236 6.0 13.0 0.00 0.02 0.00 39 1019.7
20200405205011 56 255 3.0 11.0 0.00 0.02 0.00 42 1019.7
20200405204539 56 267 2.0 11.0 0.00 0.02 0.00 39 1019.7
20200405204034 56 267 7.0 11.0 0.00 0.02 0.00 40 1019.8
20200405203524 56 267 4.0 10.0 0.00 0.02 0.00 43 1019.7
20200405203022 56 254 4.0 9.0 0.00 0.02 0.00 39 1019.8
20200405202509 56 278 4.0 9.0 0.00 0.02 0.00 42 1019.9
20200405202018 56 252 4.0 11.0 0.00 0.02 0.00 41 1020.0
20200405201011 56 247 4.0 8.0 0.00 0.02 0.00 40 1020.0
20200405200510 56 277 3.0 10.0 0.00 0.02 0.00 41 1020.0
20200405200015 56 227 4.0 10.0 0.00 0.02 0.00 43 1020.1
20200405195519 56 245 4.0 10.0 0.00 0.04 0.00 42 1020.1
20200405195006 55 251 2.0 9.0 0.00 0.04 0.00 43 1020.2
20200405194505 55 244 2.0 9.0 0.00 0.04 0.00 43 1020.2
20200405194005 55 240 1.0 10.0 0.00 0.04 0.00 42 1020.3
20200405193507 55 248 5.0 10.0 0.00 0.04 0.00 41 1020.3
20200405193009 54 262 4.0 12.0 0.00 0.04 0.00 39 1020.4
20200405192503 55 251 6.0 12.0 0.00 0.04 0.00 42 1020.4
20200405192002 54 261 1.0 8.0 0.00 0.04 0.00 44 1020.4
20200405191100 54 260 2.0 9.0 0.00 0.04 0.00 44 1020.7
20200405190617 53 229 3.0 9.0 0.00 0.04 0.00 44 1020.7
20200405190100 53 230 2.0 13.0 0.00 0.04 0.00 46 1020.8
20200405185603 53 219 9.0 13.0 0.00 0.07 0.00 44 1020.9
20200405185101 53 232 3.0 9.0 0.00 0.07 0.00 47 1020.9
20200405184756 52 236 4.0 12.0 0.00 0.07 0.00 45 1020.9
20200405184101 52 254 3.0 11.0 0.00 0.07 0.00 48 1021.0
20200405183608 51 284 6.0 13.0 0.00 0.07 0.00 46 1021.0
20200405183156 52 248 7.0 13.0 0.00 0.07 0.00 44 1021.1
20200405182553 52 182 3.0 10.0 0.00 0.07 0.00 47 1021.2
20200405182052 52 258 3.0 9.0 0.00 0.07 0.00 50 1021.3
20200405181052 51 252 6.0 11.0 0.00 0.07 0.00 47 1021.4
20200405180607 51 265 5.0 12.0 0.00 0.07 0.00 49 1021.5
20200405180105 51 237 3.0 12.0 0.00 0.07 0.00 47 1021.4
20200405175606 51 260 4.0 11.0 0.00 0.11 0.00 48 1021.4
20200405175053 50 225 1.0 8.0 0.00 0.11 0.00 50 1021.5
20200405174618 49 217 1.0 10.0 0.00 0.11 0.00 53 1021.4
20200405174049 49 209 3.0 11.0 0.00 0.11 0.00 54 1021.4
20200405173543 48 254 4.0 11.0 0.00 0.11 0.00 52 1021.4
20200405173100 48 208 2.0 7.0 0.00 0.11 0.00 52 1021.5
20200405172606 48 207 2.0 10.0 0.00 0.11 0.00 50 1021.5
20200405172045 48 185 2.0 10.0 0.00 0.11 0.00 50 1021.6
20200405171050 47 240 0.0 5.0 0.00 0.11 0.00 55 1021.8
20200405170540 46 163 0.0 8.0 0.00 0.11 0.00 58 1021.8
20200405170111 46 204 4.0 8.0 0.00 0.11 0.00 57 1021.8
20200405165538 46 161 2.0 6.0 0.00 0.14 0.00 57 1022.0
20200405165037 46 196 2.0 8.0 0.00 0.14 0.00 57 1022.0
20200405164630 46 197 1.0 8.0 0.00 0.14 0.00 57 1022.0
20200405164046 45 155 2.0 7.0 0.00 0.14 0.00 60 1022.1
20200405163538 45 196 3.0 6.0 0.00 0.14 0.00 58 1022.2
20200405163049 45 156 2.0 7.0 0.00 0.14 0.00 59 1022.2
20200405162534 45 155 1.0 7.0 0.00 0.14 0.00 59 1022.3
20200405162031 44 213 3.0 8.0 0.00 0.14 0.00 60 1022.2
20200405161032 44 160 1.0 8.0 0.00 0.14 0.00 63 1022.2
20200405160605 43 164 3.0 8.0 0.00 0.14 0.00 63 1022.3
20200405160047 42 193 1.0 9.0 0.00 0.14 0.00 64 1022.3
20200405155526 42 182 3.0 9.0 0.00 0.14 0.00 63 1022.2
20200405155024 42 169 2.0 7.0 0.00 0.14 0.00 64 1022.2
20200405154538 42 176 3.0 7.0 0.00 0.14 0.00 63 1022.1
20200405154025 41 188 3.0 8.0 0.00 0.14 0.00 64 1022.2
20200405153521 41 160 4.0 8.0 0.00 0.14 0.00 64 1022.2
20200405153020 41 164 1.0 7.0 0.00 0.14 0.00 65 1022.2
20200405152519 41 151 2.0 6.0 0.00 0.14 0.00 65 1022.3
20200405152022 41 151 2.0 8.0 0.00 0.14 0.00 64 1022.4
20200405151035 40 190 2.0 9.0 0.00 0.14 0.00 64 1022.4
20200405150518 40 203 3.0 9.0 0.00 0.14 0.00 64 1022.5
20200405150035 40 190 4.0 9.0 0.00 0.14 0.00 66 1022.6
20200405145513 39 192 1.0 8.0 0.00 0.14 0.00 66 1022.6
20200405145013 39 186 4.0 10.0 0.00 0.14 0.00 67 1022.4
20200405144510 39 207 3.0 10.0 0.00 0.14 0.00 67 1022.5
20200405144021 39 216 1.0 8.0 0.00 0.14 0.00 69 1022.6
20200405143506 38 211 4.0 9.0 0.00 0.14 0.00 69 1022.6
20200405143019 38 172 2.0 8.0 0.00 0.14 0.00 69 1022.6
20200405142504 38 194 3.0 9.0 0.00 0.14 0.00 71 1022.6
20200405142011 38 194 3.0 7.0 0.00 0.14 0.00 71 1022.6
20200405141002 37 209 2.0 8.0 0.00 0.14 0.00 74 1022.7
20200405140601 37 167 1.0 8.0 0.00 0.14 0.00 75 1022.8
20200405140201 36 189 3.0 8.0 0.00 0.14 0.00 77 1022.8
20200405135558 36 185 3.0 7.0 0.00 0.14 0.00 78 1022.8
20200405135056 35 160 1.0 7.0 0.00 0.14 0.00 80 1022.8
20200405134650 35 165 3.0 7.0 0.00 0.14 0.00 82 1022.8
20200405134056 34 161 2.0 6.0 0.00 0.14 0.00 83 1022.8
20200405133554 34 152 2.0 5.0 0.00 0.14 0.00 83 1022.9
20200405133131 34 165 2.0 5.0 0.00 0.14 0.00 84 1023.0
20200405132553 33 200 0.0 5.0 0.00 0.14 0.00 85 1023.1
20200405132052 33 200 1.0 5.0 0.00 0.14 0.00 85 1023.2
20200405131701 32 146 0.0 3.0 0.00 0.14 0.00 86 1023.3
20200405131111 32 146 0.0 3.0 0.00 0.14 0.00 86 1023.3
20200405130600 31 146 1.0 3.0 0.00 0.14 0.00 85 1023.2
20200405130108 31 146 0.0 4.0 0.00 0.14 0.00 85 1023.3
20200405125552 31 146 1.0 4.0 0.00 0.14 0.00 85 1023.3
20200405125051 31 146 2.0 5.0 0.00 0.14 0.00 84 1023.2
20200405124622 31 146 1.0 5.0 0.00 0.14 0.00 85 1023.1
20200405124052 31 145 1.0 4.0 0.00 0.14 0.00 85 1023.1
20200405123549 31 144 1.0 5.0 0.00 0.14 0.00 85 1023.1
20200405123141 30 143 2.0 5.0 0.00 0.14 0.00 85 1023.0
20200405122546 30 139 2.0 5.0 0.00 0.14 0.00 85 1023.0
20200405122045 30 136 2.0 4.0 0.00 0.14 0.00 85 1023.0
20200405121602 29 137 2.0 4.0 0.00 0.14 0.00 85 1023.0
20200405121052 29 137 1.0 4.0 0.00 0.14 0.00 85 1023.0
20200405120543 29 136 2.0 5.0 0.00 0.14 0.00 85 1023.0
20200405120140 29 136 2.0 5.0 0.00 0.14 0.00 85 1023.0
20200405115545 29 134 1.0 5.0 0.00 0.14 0.00 85 1022.9
20200405115040 29 134 2.0 5.0 0.00 0.14 0.00 85 1022.9
20200405114654 30 125 2.0 4.0 0.00 0.14 0.00 85 1022.8
20200405114051 30 123 1.0 5.0 0.00 0.14 0.00 85 1022.8
20200405113539 30 123 2.0 5.0 0.00 0.14 0.00 85 1022.8
20200405113104 30 123 3.0 5.0 0.00 0.14 0.00 85 1022.8
20200405112537 30 123 2.0 4.0 0.00 0.14 0.00 84 1022.9
20200405112036 30 123 2.0 4.0 0.00 0.14 0.00 83 1022.8
20200405111549 30 123 3.0 4.0 0.00 0.14 0.00 82 1022.8
20200405111040 30 123 3.0 4.0 0.00 0.14 0.00 82 1022.8
20200405110539 30 123 2.0 4.0 0.00 0.14 0.00 81 1022.8
20200405110109 30 123 2.0 4.0 0.00 0.14 0.00 81 1022.9
20200405105535 30 122 3.0 4.0 0.00 0.14 0.00 80 1022.8
20200405105035 30 122 3.0 4.0 0.00 0.14 0.00 80 1022.9
20200405104559 30 121 2.0 3.0 0.00 0.14 0.00 79 1022.9
20200405104035 30 121 2.0 3.0 0.00 0.14 0.00 79 1022.9
20200405103535 30 121 1.0 3.0 0.00 0.14 0.00 79 1022.9
20200405103044 30 121 1.0 3.0 0.00 0.14 0.00 79 1022.9
20200405102539 30 121 1.0 3.0 0.00 0.14 0.00 78 1022.9
20200405102038 30 121 1.0 3.0 0.00 0.14 0.00 78 1022.8
20200405101559 31 121 2.0 3.0 0.00 0.14 0.00 78 1022.8
20200405101038 31 121 1.0 3.0 0.00 0.14 0.00 78 1022.8
20200405100534 31 121 2.0 3.0 0.00 0.14 0.00 78 1022.8
20200405100051 31 121 1.0 2.0 0.00 0.14 0.00 78 1022.8
20200405095534 31 121 1.0 2.0 0.00 0.14 0.00 78 1022.7
20200405095033 31 121 0.0 2.0 0.00 0.14 0.00 78 1022.8
20200405094558 31 121 0.0 3.0 0.00 0.14 0.00 78 1022.7
20200405094040 30 121 1.0 4.0 0.00 0.14 0.00 78 1022.7
20200405093533 30 121 1.0 4.0 0.00 0.14 0.00 79 1022.7
20200405093122 30 121 1.0 3.0 0.00 0.14 0.00 79 1022.7
20200405092541 30 121 0.0 3.0 0.00 0.14 0.00 79 1022.7
20200405092032 30 121 1.0 3.0 0.00 0.14 0.00 79 1022.7
20200405091555 30 120 1.0 4.0 0.00 0.14 0.00 78 1022.6
20200405091030 30 120 1.0 4.0 0.00 0.14 0.00 78 1022.6
20200405090530 30 120 2.0 4.0 0.00 0.14 0.00 78 1022.3
20200405090048 30 119 2.0 4.0 0.00 0.14 0.00 78 1022.2
20200405085527 30 116 2.0 4.0 0.00 0.14 0.00 77 1022.3
20200405085027 31 120 1.0 3.0 0.00 0.14 0.00 77 1022.4
20200405084614 31 119 1.0 4.0 0.00 0.14 0.00 77 1022.4
20200405084026 31 120 1.0 4.0 0.00 0.14 0.00 77 1022.4
20200405083525 31 124 1.0 4.0 0.00 0.14 0.00 77 1022.4
20200405083054 31 128 1.0 4.0 0.00 0.14 0.00 77 1022.4
20200405082525 31 130 1.0 4.0 0.00 0.14 0.00 78 1022.4
20200405082027 31 132 1.0 3.0 0.00 0.14 0.00 79 1022.4
20200405081525 32 132 0.0 3.0 0.00 0.14 0.00 81 1022.5
20200405081023 32 132 0.0 3.0 0.00 0.14 0.00 81 1022.5
20200405080527 32 132 1.0 4.0 0.00 0.14 0.00 81 1022.4
20200405080108 32 132 1.0 4.0 0.00 0.14 0.00 80 1022.4
20200405075544 32 132 0.0 4.0 0.00 0.14 0.00 79 1022.4
20200405075023 32 132 1.0 4.0 0.00 0.14 0.00 79 1022.4
20200405074621 32 131 1.0 3.0 0.00 0.14 0.00 79 1022.3
20200405074023 32 131 1.0 4.0 0.00 0.14 0.00 79 1022.3
20200405073523 32 131 1.0 4.0 0.00 0.14 0.00 79 1022.3
20200405073025 32 130 1.0 4.0 0.00 0.14 0.00 79 1022.3
20200405072522 32 130 1.0 2.0 0.00 0.14 0.00 79 1022.4
20200405072021 32 130 0.0 3.0 0.00 0.14 0.00 80 1022.4
20200405071534 32 131 1.0 4.0 0.00 0.14 0.00 79 1022.3
20200405071021 32 131 1.0 4.0 0.00 0.14 0.00 80 1022.3
20200405070520 32 131 1.0 4.0 0.00 0.14 0.00 79 1022.2
20200405070020 32 132 1.0 5.0 0.00 0.14 0.00 78 1022.4
20200405065520 33 131 2.0 5.0 0.00 0.14 0.00 77 1022.4
20200405065018 33 130 1.0 4.0 0.00 0.14 0.00 77 1022.5
20200405064519 33 130 1.0 3.0 0.00 0.14 0.00 75 1022.5
20200405064028 33 130 0.0 3.0 0.00 0.14 0.00 75 1022.5
20200405063518 33 130 1.0 3.0 0.00 0.14 0.00 74 1022.5
20200405063021 33 130 0.0 1.0 0.00 0.14 0.00 74 1022.5
20200405062521 33 130 0.0 2.0 0.00 0.14 0.00 73 1022.5
20200405062017 32 130 0.0 2.0 0.00 0.14 0.00 73 1022.4
20200405061608 32 130 0.0 3.0 0.00 0.14 0.00 72 1022.3
20200405061017 32 130 1.0 3.0 0.00 0.14 0.00 72 1022.3
20200405060517 32 130 1.0 4.0 0.00 0.14 0.00 72 1022.3
20200405060016 32 130 2.0 4.0 0.00 0.14 0.00 72 1022.4
20200405055516 32 130 2.0 4.0 0.00 0.14 0.00 72 1022.4
20200405055019 33 129 1.0 4.0 0.00 0.14 0.00 71 1022.4
20200405054518 33 128 2.0 4.0 0.00 0.14 0.00 71 1022.3
20200405054015 33 128 2.0 4.0 0.00 0.14 0.00 70 1022.4
20200405053512 33 127 1.0 3.0 0.00 0.14 0.00 69 1022.5
20200405053036 34 127 2.0 4.0 0.00 0.14 0.00 68 1022.5
20200405052519 34 127 2.0 4.0 0.00 0.14 0.00 68 1022.5
20200405052010 34 127 2.0 4.0 0.00 0.14 0.00 67 1022.6
20200405051517 34 126 0.0 0.0 0.00 0.14 0.00 68 1022.8
20200405051009 34 126 0.0 0.0 0.00 0.14 0.00 68 1022.8
20200405050509 34 126 0.0 0.0 0.00 0.14 0.00 69 1022.9
20200405050019 33 126 0.0 0.0 0.00 0.14 0.00 69 1022.8
20200405045510 33 126 0.0 0.0 0.00 0.14 0.14 69 1022.8
20200405045008 34 126 0.0 0.0 0.00 0.14 0.14 69 1022.9
20200405044508 34 126 0.0 0.0 0.00 0.14 0.14 68 1022.9
20200405044008 34 126 0.0 0.0 0.00 0.14 0.14 68 1022.9
20200405043510 34 126 0.0 0.0 0.00 0.14 0.14 68 1023.0
20200405043015 34 126 0.0 0.0 0.00 0.14 0.14 67 1022.9
20200405042510 34 126 0.0 0.0 0.00 0.14 0.14 67 1023.0
20200405042009 35 126 0.0 0.0 0.00 0.14 0.14 67 1023.0
20200405041522 35 126 0.0 2.0 0.00 0.14 0.14 67 1023.0
20200405041009 35 126 0.0 2.0 0.00 0.14 0.14 67 1023.0
20200405040511 35 126 0.0 3.0 0.00 0.14 0.14 67 1023.0
20200405040033 35 126 1.0 3.0 0.00 0.14 0.14 67 1022.8
20200405035511 35 126 1.0 4.0 0.00 0.14 0.14 68 1022.8
20200405035009 34 126 2.0 4.0 0.00 0.14 0.14 68 1022.7
20200405034515 34 126 1.0 4.0 0.00 0.14 0.14 69 1022.7
20200405034008 34 126 1.0 4.0 0.00 0.14 0.14 69 1022.6
20200405033509 34 126 1.0 3.0 0.00 0.14 0.14 69 1022.5
20200405033038 34 126 1.0 4.0 0.00 0.14 0.14 69 1022.5
20200405032510 34 126 2.0 4.0 0.00 0.14 0.14 69 1022.5
20200405032007 34 126 1.0 4.0 0.00 0.14 0.14 69 1022.4
20200405031515 35 141 1.0 3.0 0.00 0.14 0.14 68 1022.4
20200405031010 35 144 1.0 3.0 0.00 0.14 0.14 68 1022.4
20200405030509 35 144 0.0 3.0 0.00 0.14 0.14 67 1022.5
20200405030025 36 144 1.0 3.0 0.00 0.14 0.14 66 1022.4
20200405025513 36 144 1.0 3.0 0.00 0.14 0.14 65 1022.6
20200405025010 36 144 1.0 3.0 0.00 0.14 0.14 64 1022.6
20200405024547 37 144 0.0 1.0 0.00 0.14 0.14 64 1022.7
20200405024011 37 144 0.0 4.0 0.00 0.14 0.14 64 1022.8
20200405023509 37 144 1.0 4.0 0.00 0.14 0.14 63 1022.7
20200405023021 37 144 2.0 4.0 0.00 0.14 0.14 63 1022.8
20200405022509 37 144 1.0 3.0 0.00 0.14 0.14 63 1022.9
20200405022012 37 144 1.0 2.0 0.00 0.14 0.14 63 1022.9
20200405021528 37 144 0.0 0.0 0.00 0.14 0.14 62 1023.0
20200405021004 37 144 0.0 0.0 0.00 0.14 0.14 62 1023.0
20200405020504 38 144 0.0 0.0 0.00 0.14 0.14 61 1023.0